Location: Newark
(5.0949°S, 42.8042°W)
Time: 03:08:20
(UTC+00:00)

LightSail 2 - Visible Passes

Search period start: 20 September 2019 00:00
Search period end: 30 September 2019 00:00
Orbit: 700 x 732 km, 24.0° (Epoch: 19 September)

Date Brightness Start Highest point End Pass type
(mag) Time Alt. Az. Time Alt. Az. Time Alt. Az.
22 Sep 7.9 23:01:15 10° SSW 23:01:24 10° SSW 23:01:24 10° SSW visible
23 Sep 7.3 22:04:35 10° SSW 22:06:46 12° SSE 22:07:46 12° SSE visible
24 Sep 7.5 21:08:09 10° S 21:09:14 11° S 21:10:18 10° SSE visible
24 Sep 7.4 22:51:35 10° SSW 22:53:12 16° SSW 22:53:12 16° SSW visible
25 Sep 6.9 21:54:44 10° SSW 21:58:15 18° SSE 21:59:36 16° SE visible
26 Sep 6.7 22:42:07 10° SW 22:45:05 27° SSW 22:45:05 27° SSW visible
27 Sep 6.5 21:45:09 10° SW 21:49:35 27° SSE 21:51:33 21° SE visible
27 Sep 8.0 23:30:05 10° WSW 23:30:35 13° WSW 23:30:35 13° WSW visible
28 Sep 5.7 22:32:52 10° WSW 22:37:06 52° SSW 22:37:06 52° SSW visible
29 Sep 5.7 21:35:45 10° SW 21:40:47 44° SSE 21:43:38 23° E visible
29 Sep 7.7 23:21:20 10° W 23:22:41 18° W 23:22:41 18° W visible
